Lihue, HI

3:24 AM HST on September 19, 2019 (GMT -1000)
Lihue

Weather History for PHLI - August, 2019

Change the Weather History Date:

Friday, August 23, 2019

  Actual Average Record
Temperature  
Mean Temperature 85 °F 80 °F  
Max Temperature 89 °F 85 °F 90 °F (2015)
Min Temperature 80 °F 75 °F 69 °F (1964)
Degree Days  
Heating Degree Days 0 0  
Month to date heating degree days 0 0  
Since 1 June heating degree days 0 0  
Since 1 July heating degree days 0 0  
Cooling Degree Days 20 15  
Month to date cooling degree days 408 344  
Year to date cooling degree days 2694 2416  
Since 1 June cooling degree days 1329 1177  
Growing Degree Days 34 (Base 50)    
Moisture  
Dew Point 75 °F    
Average Humidity 79    
Maximum Humidity 94    
Minimum Humidity 58    
Precipitation  
Precipitation 0.01 in 0.06 in 1.27 in (1974)
Month to date precipitation 1.38 1.64  
Year to date precipitation 17.35 20.96  
Sea Level Pressure  
Sea Level Pressure 29.97 in    
Wind  
Wind Speed 11 mph (ENE)    
Max Wind Speed 14 mph    
Max Gust Speed 16 mph    
Visibility 10 miles    
Events Rain    
T = Trace of Precipitation, MM = Missing Value Source: NWS Daily Summary

Daily Weather History Graph

Daily Weather History Graph

Search for Another Location

Airport or City:

Astronomy

Aug. 23, 2019 Rise Set
Actual Time 6:17 AM HST 7:01 PM HST
Civil Twilight 5:54 AM HST 7:24 PM HST
Nautical Twilight 5:27 AM HST 7:51 PM HST
Astronomical Twilight 5:00 AM HST 8:19 PM HST
Moon No Moon Rise 1:11 PM HST (8/23)
Length of Visible Light 13h 30m
Length of Day
12h 44m
Waning Gibbous, 47% of the Moon is Illuminated
Aug 23
Waning Gibbous
Aug 30
New
Sep 5
First Quarter
Sep 13
Full
Sep 21
Last Quarter

Hourly Weather History & Observations

Time (HST) Temp. Heat Index Dew Point Humidity Pressure Visibility Wind Dir Wind Speed Gust Speed Precip Events Conditions
12:12 AM 81.0 °F 86.2 °F 73.9 °F 79% 29.99 in 10.0 mi NE 10.4 mph - N/A   Mostly Cloudy
12:40 AM 81.0 °F 86.2 °F 73.9 °F 79% 29.98 in 10.0 mi NE 11.5 mph - N/A   Scattered Clouds
1:20 AM 81.0 °F 85.8 °F 73.0 °F 77% 29.98 in 10.0 mi NE 12.7 mph - N/A   Mostly Cloudy
1:37 AM 81.0 °F 85.8 °F 73.0 °F 77% 29.97 in 10.0 mi ENE 10.4 mph - N/A   Scattered Clouds
1:53 AM 81.0 °F 85.8 °F 73.0 °F 77% 29.96 in 10.0 mi ENE 9.2 mph - N/A   Partly Cloudy
2:22 AM 81.0 °F 85.8 °F 73.0 °F 77% 29.96 in 10.0 mi ENE 11.5 mph - N/A   Mostly Cloudy
2:53 AM 81.0 °F 85.8 °F 73.0 °F 77% 29.95 in 10.0 mi ENE 9.2 mph - N/A   Partly Cloudy
4:18 AM 81.0 °F 85.8 °F 73.0 °F 77% 29.95 in 10.0 mi ENE 8.1 mph - N/A   Mostly Cloudy
4:33 AM 81.0 °F 86.2 °F 73.9 °F 79% 29.95 in 10.0 mi East 9.2 mph - N/A   Scattered Clouds
4:53 AM 81.0 °F 86.2 °F 73.9 °F 79% 29.95 in 10.0 mi East 9.2 mph - N/A   Partly Cloudy
5:53 AM 80.1 °F 84.2 °F 73.0 °F 79% 29.96 in 10.0 mi East 6.9 mph - N/A   Scattered Clouds
6:53 AM 81.0 °F 85.8 °F 73.0 °F 77% 29.97 in 10.0 mi East 8.1 mph - N/A   Scattered Clouds
7:53 AM 84.0 °F 90.2 °F 73.0 °F 69% 29.99 in 10.0 mi ENE 8.1 mph - N/A   Scattered Clouds
8:53 AM 84.9 °F 92.1 °F 73.9 °F 69% 29.99 in 10.0 mi ENE 6.9 mph - N/A   Scattered Clouds
9:53 AM 87.1 °F 95.4 °F 73.9 °F 65% 29.99 in 10.0 mi ENE 8.1 mph - N/A   Scattered Clouds
10:53 AM 87.1 °F 96.3 °F 75.0 °F 67% 29.99 in 10.0 mi NE 10.4 mph - N/A   Clear
11:53 AM 88.0 °F 97.5 °F 75.0 °F 65% 29.98 in 10.0 mi NE 10.4 mph - N/A   Scattered Clouds
12:53 PM 84.0 °F 94.8 °F 78.1 °F 82% 29.97 in 10.0 mi NE 10.4 mph - 0.01 in   Scattered Clouds
1:53 PM 88.0 °F 97.5 °F 75.0 °F 65% 29.95 in 10.0 mi ENE 11.5 mph - N/A   Scattered Clouds
2:53 PM 84.9 °F 93.3 °F 75.0 °F 72% 29.94 in 9.0 mi ENE 8.1 mph - N/A   Mostly Cloudy
3:53 PM 88.0 °F 97.5 °F 75.0 °F 65% 29.93 in 10.0 mi NE 12.7 mph - N/A   Partly Cloudy
4:53 PM 86.0 °F 95.1 °F 75.0 °F 70% 29.94 in 10.0 mi NE 12.7 mph - N/A   Mostly Cloudy
5:53 PM 82.9 °F 90.8 °F 75.9 °F 79% 29.94 in 10.0 mi NNE 11.5 mph - 0.02 in   Mostly Cloudy
6:53 PM 80.6 °F 87.1 °F 77.0 °F 89% 29.95 in 10.0 mi NNE 12.7 mph - N/A Rain Light Rain
7:53 PM 81.0 °F 87.9 °F 77.0 °F 88% 29.97 in 10.0 mi NE 15.0 mph - 0.01 in   Overcast
8:53 PM 80.1 °F 85.8 °F 77.0 °F 90% 29.98 in 8.0 mi ENE 18.4 mph - 0.02 in   Overcast
9:11 PM 80.1 °F 85.8 °F 77.0 °F 90% 30.00 in 3.0 mi East 21.9 mph 25.3 mph 0.00 in Rain Rain
9:53 PM 80.1 °F 86.4 °F 78.1 °F 94% 29.99 in 10.0 mi NE 9.2 mph - 0.04 in   Overcast
10:08 PM 80.1 °F 86.4 °F 78.1 °F 94% 30.00 in 10.0 mi ENE 13.8 mph - N/A   Overcast
10:19 PM 81.0 °F 88.6 °F 78.1 °F 91% 30.00 in 9.0 mi ENE 13.8 mph - N/A   Overcast
10:27 PM 80.1 °F 86.4 °F 78.1 °F 94% 30.00 in 5.0 mi ENE 13.8 mph - 0.01 in Rain Light Rain
10:40 PM 80.1 °F 86.4 °F 78.1 °F 94% 30.00 in 10.0 mi ENE 12.7 mph - 0.01 in   Overcast
10:53 PM 81.0 °F 89.2 °F 79.0 °F 94% 29.99 in 10.0 mi East 15.0 mph - 0.01 in   Overcast
11:18 PM 82.0 °F 90.2 °F 77.0 °F 85% 29.99 in 10.0 mi East 19.6 mph - N/A   Overcast
11:28 PM 82.0 °F 89.4 °F 75.9 °F 82% 29.99 in 10.0 mi East 16.1 mph - N/A   Overcast
11:53 PM 82.0 °F 89.4 °F 75.9 °F 82% 29.98 in 10.0 mi East 18.4 mph - N/A   Overcast